Location: Tucson
(32.2217°N, 110.9265°W)
Time: 18:04:23
(UTC-07:00)

Transit 2A Rocket - Pass Details

Date: 13 August 2022
Orbit: 593 x 908 km, 66.7° (Epoch: 26 September)

Event Time Altitude Azimuth Distance (km) Brightness Sun altitude
Rises 04:44:30 0° 317° (NW) 2,914 7.8 -13.0°
Reaches altitude 10° 04:47:06 10° 302° (WNW) 2,044 6.9 -12.5°
Maximum altitude 04:50:39 22° 251° (WSW) 1,444 5.8 -11.8°
Drops below altitude 10° 04:54:26 10° 200° (SSW) 2,175 6.9 -11.1°
Sets 04:57:19 0° 186° (S) 3,153 7.9 -10.6°
